Weather History for KOKC - May, 2013

Change the Weather History Date:

Friday, May 24, 2013

  Actual Average Record
Temperature  
Mean Temperature 72 °F 72 °F  
Max Temperature 82 °F 82 °F 98 °F (2000)
Min Temperature 61 °F 62 °F 42 °F (1935)
Cooling Degree Days 7 8  
Month to date cooling degree days 80 124  
Year to date cooling degree days 108 190  
Growing Degree Days 22 (Base 50)    
Moisture  
Dew Point 64 °F    
Average Humidity 78    
Maximum Humidity 90    
Minimum Humidity 65    
Precipitation  
Precipitation 0.00 in 0.16 in 4.06 in (1903)
Month to date precipitation 7.93 3.53  
Year to date precipitation 20.45 12.63  
Sea Level Pressure  
Sea Level Pressure 30.11 in    
Wind  
Wind Speed 13 mph (ESE)    
Max Wind Speed 21 mph    
Max Gust Speed 28 mph    
Visibility 10 miles    
Events      
T = Trace of Precipitation, MM = Missing Value Source: NWS Daily Summary

Daily Weather History Graph

Daily Weather History Graph

Search for Another Location

Airport or City:

Trip Planner

Search our weather history database for the weather conditions in past years. The results will help you decide how hot, cold, wet, or windy it might be!

Date:

Astronomy

May. 24, 2013 Rise Set
Actual Time 6:19 AM CDT 8:35 PM CDT
Civil Twilight 5:51 AM CDT 9:03 PM CDT
Nautical Twilight 5:15 AM CDT 9:39 PM CDT
Astronomical Twilight 4:37 AM CDT 10:18 PM CDT
Moon 8:19 PM CDT (5/24) 5:51 AM CDT (5/24)
Length of Visible Light 15h 12m
Length of Day
14h 15m
Full, 100% of the Moon is Illuminated
May 24
Full
May 24
Full
May 31
Last Quarter
Jun 8
New
Jun 16
First Quarter

Hourly Weather History & Observations

Time (CDT) Temp. Heat Index Dew Point Humidity Pressure Visibility Wind Dir Wind Speed Gust Speed Precip Events Conditions
12:52 AM 63.0 °F - 57.9 °F 84% 30.07 in 10.0 mi ENE 12.7 mph - N/A   Mostly Cloudy
1:52 AM 62.1 °F - 57.9 °F 86% 30.09 in 10.0 mi ENE 4.6 mph - N/A   Mostly Cloudy
2:52 AM 62.1 °F - 57.9 °F 86% 30.08 in 10.0 mi East 6.9 mph - N/A   Mostly Cloudy
3:52 AM 62.1 °F - 57.9 °F 86% 30.09 in 10.0 mi East 11.5 mph - N/A   Mostly Cloudy
4:52 AM 61.0 °F - 57.9 °F 90% 30.09 in 10.0 mi ENE 8.1 mph - N/A   Mostly Cloudy
5:42 AM 60.8 °F - 57.2 °F 88% 30.14 in 10.0 mi East 6.9 mph - N/A   Mostly Cloudy
5:52 AM 61.0 °F - 57.9 °F 90% 30.12 in 10.0 mi East 4.6 mph - N/A   Mostly Cloudy
6:11 AM 62.6 °F - 57.2 °F 82% 30.14 in 10.0 mi ENE 5.8 mph - N/A   Mostly Cloudy
6:32 AM 62.6 °F - 59.0 °F 88% 30.15 in 10.0 mi ENE 6.9 mph - N/A   Mostly Cloudy
6:48 AM 62.6 °F - 59.0 °F 88% 30.15 in 10.0 mi East 10.4 mph - N/A   Overcast
6:52 AM 62.1 °F - 59.0 °F 90% 30.13 in 10.0 mi East 9.2 mph - N/A   Overcast
7:05 AM 62.6 °F - 59.0 °F 88% 30.14 in 10.0 mi East 9.2 mph - N/A   Overcast
7:48 AM 64.4 °F - 60.8 °F 88% 30.14 in 10.0 mi East 11.5 mph - N/A   Mostly Cloudy
7:52 AM 64.0 °F - 60.1 °F 87% 30.12 in 10.0 mi East 12.7 mph - N/A   Mostly Cloudy
8:01 AM 64.4 °F - 60.8 °F 88% 30.14 in 10.0 mi East 10.4 mph - N/A   Mostly Cloudy
8:52 AM 66.0 °F - 61.0 °F 84% 30.14 in 10.0 mi ESE 10.4 mph - N/A   Overcast
9:15 AM 68.0 °F - 62.6 °F 83% 30.16 in 10.0 mi ESE 13.8 mph - N/A   Mostly Cloudy
9:52 AM 70.0 °F - 64.0 °F 81% 30.14 in 10.0 mi SE 16.1 mph 24.2 mph N/A   Overcast
10:52 AM 75.0 °F - 66.0 °F 73% 30.13 in 10.0 mi SE 13.8 mph - N/A   Overcast
11:52 AM 77.0 °F - 66.9 °F 71% 30.13 in 10.0 mi SE 17.3 mph - N/A   Overcast
11:59 AM 77.0 °F - 68.0 °F 74% 30.16 in 10.0 mi SSE 15.0 mph 21.9 mph N/A   Overcast
12:52 PM 78.1 °F - 69.1 °F 74% 30.13 in 10.0 mi SSE 15.0 mph - N/A   Mostly Cloudy
1:52 PM 78.1 °F - 69.1 °F 74% 30.12 in 10.0 mi SE 17.3 mph - N/A   Overcast
2:20 PM 78.8 °F - 69.8 °F 74% 30.14 in 10.0 mi SSE 15.0 mph - N/A   Overcast
2:52 PM 79.0 °F - 70.0 °F 74% 30.11 in 10.0 mi SSE 13.8 mph - N/A   Overcast
3:11 PM 78.8 °F - 69.8 °F 74% 30.14 in 9.0 mi SSE 12.7 mph - N/A   Overcast
3:28 PM 80.6 °F 83.9 °F 69.8 °F 70% 30.13 in 10.0 mi SSE 11.5 mph 19.6 mph N/A   Mostly Cloudy
3:52 PM 80.1 °F 83.2 °F 70.0 °F 71% 30.09 in 10.0 mi SE 15.0 mph - N/A   Mostly Cloudy
4:52 PM 82.0 °F 85.9 °F 70.0 °F 67% 30.05 in 10.0 mi SSE 12.7 mph 20.7 mph N/A   Mostly Cloudy
5:52 PM 80.1 °F 82.9 °F 69.1 °F 69% 30.05 in 10.0 mi SE 18.4 mph 24.2 mph N/A   Mostly Cloudy
6:52 PM 78.1 °F - 69.1 °F 74% 30.04 in 10.0 mi SE 17.3 mph 24.2 mph N/A   Mostly Cloudy
7:52 PM 75.9 °F - 69.1 °F 79% 30.06 in 10.0 mi SE 17.3 mph 23.0 mph N/A   Mostly Cloudy
8:52 PM 75.0 °F - 69.1 °F 82% 30.07 in 10.0 mi SSE 12.7 mph - N/A   Mostly Cloudy
9:52 PM 73.9 °F - 69.1 °F 85% 30.08 in 10.0 mi SSE 13.8 mph - N/A   Mostly Cloudy
10:52 PM 73.0 °F - 68.0 °F 84% 30.08 in 10.0 mi SSE 17.3 mph - N/A   Mostly Cloudy
11:33 PM 71.6 °F - 68.0 °F 88% 30.11 in 10.0 mi South 16.1 mph 27.6 mph N/A   Mostly Cloudy
11:52 PM 71.1 °F - 63.0 °F 75% 30.07 in 10.0 mi South 16.1 mph 25.3 mph N/A   Mostly Cloudy